Weather History for Ravenna, OH

Change the Weather History Date:

Wednesday, March 6, 2013

  Actual Average (KCAK) Record (KCAK)
Temperature  
Mean Temperature 38 °F 34 °F  
Max Temperature 43 °F 42 °F 72 °F (1973)
Min Temperature 32 °F 25 °F -2 °F (1901)
Degree Days  
Heating Degree Days 28 31  
Month to date heating degree days 191  
Since 1 July heating degree days 4735  
Cooling Degree Days 0 0  
Month to date cooling degree days 0  
Year to date cooling degree days 0  
Moisture  
Dew Point 27 °F    
Average Humidity 70    
Maximum Humidity 90    
Minimum Humidity 50    
Precipitation  
Precipitation 0.00 in 0.08 in 0.92 in (1991)
Month to date precipitation 0.51  
Year to date precipitation 5.43  
Snow  
Snow 0.00 in 0.30 in - ()
Month to date snowfall 2.0  
Since 1 July snowfall 38.5  
Snow Depth -    
Sea Level Pressure  
Sea Level Pressure 29.93 in    
Wind  
Wind Speed 11 mph (NE)    
Max Wind Speed 17 mph    
Max Gust Speed 28 mph    
Visibility 10 miles    
Events Snow    
T = Trace of Precipitation, MM = Missing Value Source: NWS Daily Summary

Daily Weather History Graph

Daily Weather History Graph

Search for Another Location

Airport:

Trip Planner

Search our weather history database for the weather conditions in past years. The results will help you decide how hot, cold, wet, or windy it might be!

Date:

Astronomy

Mar. 06, 2013 Rise Set
Actual Time 6:51 AM EST 6:21 PM EST
Civil Twilight 6:23 AM EST 6:49 PM EST
Nautical Twilight 5:51 AM EST 7:21 PM EST
Astronomical Twilight 5:19 AM EST 7:53 PM EST
Moon 3:01 AM EST (3/6) 12:59 PM EST (3/6)
Length of Visible Light 12h 25m
Length of Day
11h 30m
Waning Crescent, 30% of the Moon is Illuminated
Mar 6
Waning Crescent
Mar 11
New
Mar 19
First Quarter
Mar 27
Full
Apr 3
Last Quarter

Hourly Weather History & Observations

Time (EST) Temp. Windchill Dew Point Humidity Pressure Visibility Wind Dir Wind Speed Gust Speed Precip Events Conditions
12:16 AM 34.2 °F 25.2 °F 23.5 °F 65% 29.66 in 10.0 mi East 12.7 mph 19.6 mph N/A   Clear
12:36 AM 34.3 °F 24.2 °F 23.7 °F 65% 29.66 in 10.0 mi East 16.1 mph 20.7 mph N/A   Clear
12:55 AM 34.0 °F 24.2 °F 23.9 °F 67% 29.66 in 10.0 mi East 15.0 mph 19.6 mph N/A   Clear
1:16 AM 34.0 °F 24.6 °F 23.7 °F 66% 29.66 in 10.0 mi East 13.8 mph 21.9 mph N/A   Clear
1:35 AM 34.0 °F 24.2 °F 23.9 °F 67% 29.67 in 10.0 mi ENE 15.0 mph 20.7 mph N/A   Mostly Cloudy
1:56 AM 34.2 °F 24.0 °F 23.7 °F 66% 29.67 in 10.0 mi East 16.1 mph 23.0 mph N/A   Overcast
2:16 AM 34.0 °F 24.6 °F 23.7 °F 66% 29.68 in 10.0 mi East 13.8 mph - N/A   Overcast
2:35 AM 34.0 °F 26.0 °F 23.9 °F 67% 29.68 in 10.0 mi East 10.4 mph - N/A   Overcast
2:56 AM 34.0 °F 26.0 °F 24.4 °F 68% 29.68 in 10.0 mi East 10.4 mph 16.1 mph N/A   Overcast
3:16 AM 33.8 °F 24.8 °F 24.8 °F 70% 29.69 in 10.0 mi East 12.7 mph 16.1 mph N/A   Overcast
3:35 AM 34.0 °F 24.6 °F 24.8 °F 69% 29.70 in 10.0 mi East 13.8 mph - N/A   Overcast
3:56 AM 34.0 °F 25.5 °F 25.3 °F 71% 29.71 in 7.0 mi East 11.5 mph 17.3 mph N/A Snow Light Snow
4:16 AM 34.2 °F 23.6 °F 25.9 °F 72% 29.72 in 10.0 mi East 17.3 mph 24.2 mph N/A   Overcast
4:36 AM 34.0 °F 24.2 °F 26.6 °F 74% 29.73 in 10.0 mi East 15.0 mph 27.6 mph N/A   Overcast
4:56 AM 33.8 °F 23.2 °F 26.6 °F 75% 29.75 in 10.0 mi East 17.3 mph 23.0 mph N/A   Overcast
5:16 AM 33.8 °F 23.5 °F 27.0 °F 76% 29.76 in 10.0 mi East 16.1 mph 24.2 mph N/A   Overcast
5:35 AM 33.6 °F 23.7 °F 27.7 °F 79% 29.77 in 10.0 mi East 15.0 mph - N/A   Overcast
5:56 AM 33.3 °F 23.7 °F 28.0 °F 81% 29.78 in 10.0 mi East 13.8 mph 21.9 mph N/A   Overcast
6:16 AM 33.1 °F 23.0 °F 28.4 °F 83% 29.80 in 10.0 mi East 15.0 mph - N/A   Overcast
6:35 AM 33.3 °F 23.2 °F 28.2 °F 82% 29.81 in 10.0 mi East 15.0 mph 21.9 mph N/A   Overcast
6:56 AM 33.3 °F 23.7 °F 28.4 °F 82% 29.82 in 10.0 mi East 13.8 mph - N/A   Overcast
7:16 AM 33.8 °F 23.9 °F 28.2 °F 80% 29.84 in 10.0 mi East 15.0 mph - N/A   Overcast
7:35 AM 34.0 °F 25.5 °F 28.0 °F 79% 29.85 in 10.0 mi East 11.5 mph 18.4 mph N/A   Overcast
7:56 AM 34.2 °F 26.8 °F 28.0 °F 78% 29.86 in 10.0 mi East 9.2 mph 17.3 mph N/A   Overcast
8:16 AM 34.3 °F 27.0 °F 27.9 °F 77% 29.88 in 10.0 mi East 9.2 mph - N/A   Overcast
8:36 AM 34.7 °F 27.5 °F 28.4 °F 78% 29.90 in 10.0 mi ENE 9.2 mph - N/A   Overcast
8:56 AM 34.7 °F 28.1 °F 26.6 °F 72% 29.91 in 10.0 mi NE 8.1 mph - N/A   Overcast
9:16 AM 36.0 °F 29.0 °F 26.6 °F 69% 29.92 in 10.0 mi NE 9.2 mph - N/A   Mostly Cloudy
9:35 AM 37.0 °F 28.9 °F 26.6 °F 66% 29.93 in 10.0 mi NE 12.7 mph - N/A   Scattered Clouds
9:56 AM 38.3 °F 31.4 °F 27.5 °F 65% 29.93 in 10.0 mi East 10.4 mph - N/A   Clear
10:16 AM 39.0 °F 31.8 °F 27.9 °F 64% 29.95 in 10.0 mi East 11.5 mph 16.1 mph N/A   Clear
10:36 AM 39.2 °F 33.6 °F 27.5 °F 63% 29.95 in 10.0 mi ENE 8.1 mph - N/A   Scattered Clouds
10:56 AM 41.0 °F 36.4 °F 28.2 °F 60% 29.96 in 10.0 mi East 6.9 mph - N/A   Scattered Clouds
11:16 AM 39.2 °F 35.0 °F 27.0 °F 62% 29.97 in 10.0 mi ENE 5.8 mph - N/A   Mostly Cloudy
11:35 AM 39.4 °F 35.2 °F 26.6 °F 60% 29.98 in 10.0 mi NNE 5.8 mph - N/A   Overcast
11:56 AM 41.7 °F 36.1 °F 27.5 °F 57% 29.98 in 10.0 mi ENE 9.2 mph - N/A   Overcast
12:16 PM 40.3 °F 36.3 °F 26.2 °F 57% 29.99 in 10.0 mi East 5.8 mph - N/A   Overcast
12:35 PM 41.2 °F 36.0 °F 26.8 °F 57% 29.99 in 10.0 mi ENE 8.1 mph - N/A   Overcast
12:56 PM 40.8 °F 36.2 °F 26.8 °F 57% 29.99 in 10.0 mi NE 6.9 mph - N/A   Overcast
1:16 PM 41.5 °F 37.1 °F 27.0 °F 56% 29.99 in 10.0 mi NE 6.9 mph 16.1 mph N/A   Overcast
1:35 PM 41.0 °F 36.4 °F 26.4 °F 56% 29.99 in 10.0 mi NNE 6.9 mph - N/A   Overcast
1:56 PM 41.0 °F 39.0 °F 25.5 °F 54% 29.99 in 10.0 mi North 3.5 mph - N/A   Overcast
2:16 PM 43.3 °F 39.9 °F 27.1 °F 53% 29.99 in 10.0 mi ENE 5.8 mph - N/A   Overcast
2:35 PM 41.0 °F 39.0 °F 25.7 °F 55% 30.00 in 10.0 mi NE 3.5 mph - N/A   Mostly Cloudy
2:56 PM 41.7 °F 38.0 °F 25.0 °F 52% 30.00 in 10.0 mi North 5.8 mph - N/A   Mostly Cloudy
3:16 PM 41.9 °F 36.3 °F 24.4 °F 50% 30.01 in 10.0 mi NNE 9.2 mph - N/A   Overcast
3:36 PM 41.5 °F 39.6 °F 24.4 °F 51% 30.02 in 10.0 mi NE 3.5 mph - N/A   Overcast
3:56 PM 41.4 °F 37.6 °F 25.5 °F 53% 30.02 in 10.0 mi NNE 5.8 mph - N/A   Overcast
4:16 PM 40.1 °F 35.3 °F 26.8 °F 59% 30.03 in 10.0 mi North 6.9 mph - N/A   Overcast
4:36 PM 39.6 °F 33.5 °F 27.0 °F 61% 30.03 in 10.0 mi NE 9.2 mph - N/A   Overcast
4:56 PM 39.6 °F 34.7 °F 27.0 °F 61% 30.04 in 10.0 mi NNE 6.9 mph - N/A   Overcast
5:16 PM 38.8 °F 34.6 °F 27.1 °F 63% 30.04 in 10.0 mi NE 5.8 mph - N/A   Overcast
5:36 PM 38.5 °F 32.7 °F 26.2 °F 61% 30.05 in 10.0 mi NE 8.1 mph - N/A   Overcast
5:55 PM 37.8 °F 32.5 °F 25.7 °F 62% 30.06 in 10.0 mi NNE 6.9 mph - N/A   Overcast
6:16 PM 36.7 °F 32.0 °F 25.3 °F 64% 30.07 in 10.0 mi NNE 5.8 mph - N/A   Overcast
6:36 PM 35.8 °F 30.9 °F 25.3 °F 66% 30.07 in 10.0 mi NE 5.8 mph - N/A   Mostly Cloudy
6:55 PM 34.9 °F 29.9 °F 25.9 °F 70% 30.08 in 10.0 mi NNE 5.8 mph - N/A   Mostly Cloudy
7:16 PM 33.8 °F 29.6 °F 26.2 °F 74% 30.10 in 10.0 mi NNE 4.6 mph - N/A   Scattered Clouds
7:36 PM 32.9 °F 27.5 °F 26.1 °F 76% 30.10 in 10.0 mi North 5.8 mph - N/A   Clear
7:55 PM 32.2 °F 26.7 °F 26.1 °F 78% 30.11 in 10.0 mi NNE 5.8 mph - N/A   Clear
8:16 PM 32.0 °F 28.7 °F 26.2 °F 79% 30.11 in 10.0 mi North 3.5 mph - N/A   Clear
8:36 PM 32.0 °F 28.7 °F 27.1 °F 82% 30.12 in 10.0 mi North 3.5 mph - N/A   Mostly Cloudy
8:56 PM 32.0 °F 27.5 °F 27.5 °F 83% 30.12 in 10.0 mi North 4.6 mph - N/A   Overcast
9:16 PM 32.2 °F 28.9 °F 28.4 °F 86% 30.12 in 10.0 mi NNE 3.5 mph - N/A   Overcast
9:36 PM 32.4 °F 27.9 °F 28.8 °F 87% 30.12 in 10.0 mi NNE 4.6 mph - N/A   Overcast
9:55 PM 32.7 °F 28.3 °F 29.1 °F 87% 30.12 in 10.0 mi North 4.6 mph - N/A   Overcast
10:16 PM 32.5 °F 28.1 °F 29.3 °F 88% 30.12 in 10.0 mi North 4.6 mph - N/A   Overcast
10:36 PM 32.5 °F 29.3 °F 29.3 °F 88% 30.12 in 10.0 mi North 3.5 mph - N/A   Overcast
10:55 PM 32.4 °F - 29.3 °F 88% 30.13 in 10.0 mi Calm Calm - N/A   Overcast
11:16 PM 32.7 °F 27.3 °F 29.3 °F 87% 30.13 in 10.0 mi West 5.8 mph - N/A   Overcast
11:36 PM 32.0 °F 26.4 °F 29.3 °F 90% 30.13 in 10.0 mi WNW 5.8 mph - N/A   Overcast
11:56 PM 32.0 °F 27.5 °F 29.1 °F 89% 30.12 in 10.0 mi WNW 4.6 mph - N/A   Overcast